[[{"header":{"parameterUnit":"m.s-1","parameterCategory":2,"la1":30.2991,"la2":30.254,"lo1":-89.0895,"lo2":-89.0444,"dy":0.0017,"dx":0.0017,"nx":28,"ny":28,"refTime":"2024-07-03T03:00:00:Z","depth":"0","parameterNumber":2,"parameterNumberName":"U-component_of_CURRENTS"},"data":[0,0,0,0,0,0,0,0,0,0,0,0,0,0,0,0,0,0,0,0,0,0,0,0,0,0,0,0,0,0,0,0,0,0,0,0,0,0,0,0,0,0,0,0,0,0,0,0,0,0,0,0,0,0,0,0,0,0,-0.2534,-0.2534,0,-0.2608,-0.2609,-0.261,-0.2575,-0.2573,-0.257,-0.2568,-0.267,-0.2675,-0.2679,0,0,0,0,0,0,0,0,0,0,0,0,0,-0.2438,-0.2439,-0.2534,-0.2534,-0.2535,-0.2607,-0.2609,-0.261,-0.2575,-0.2572,-0.257,-0.2568,-0.2669,-0.2674,-0.268,0,0,0,0,0,0,0,0,0,0,0,0,0,-0.2494,-0.244,-0.2533,-0.2525,-0.2524,-0.2607,-0.2609,-0.261,-0.2576,-0.2572,-0.2569,-0.2566,-0.2667,-0.2674,-0.268,-0.2786,0,0,-0.2702,-0.2705,0,0,0,0,0,0,0,0,-0.2491,-0.2498,-0.2525,-0.2525,-0.2525,-0.2577,-0.2612,-0.267,-0.2576,-0.2559,-0.2568,-0.2565,-0.2642,-0.2651,-0.2675,-0.2791,-0.2795,-0.2702,-0.2707,-0.271,-0.2712,0,0,0,0,0,0,0,-0.2487,-0.2495,-0.2565,-0.2526,-0.2526,-0.2543,-0.2547,-0.2623,-0.2619,-0.256,-0.2557,-0.2563,-0.2642,-0.2668,-0.2677,-0.2797,-0.2702,-0.2708,-0.2713,-0.2715,-0.2882,-0.2882,0,0,0,0,0,0,-0.2473,-0.2491,-0.2563,-0.2567,-0.2498,-0.2547,-0.2551,-0.2565,-0.2618,-0.2622,-0.2565,-0.2561,-0.2658,-0.2669,-0.268,-0.2712,-0.2709,-0.2716,-0.272,-0.2881,-0.2882,-0.2882,0,0,0,0,0,0,-0.2471,-0.248,-0.256,-0.2528,-0.2539,-0.2551,-0.2567,-0.2568,-0.2574,-0.2621,-0.2625,-0.2566,-0.2656,-0.2671,-0.2754,-0.2719,-0.2719,-0.2726,-0.2881,-0.2882,-0.2882,-0.2837,0,0,0,0,0,0,-0.2469,-0.2479,-0.2486,-0.2528,-0.254,-0.2581,-0.257,-0.2572,-0.2582,-0.2577,-0.2625,-0.2632,-0.2654,-0.2744,-0.2761,-0.2728,-0.2731,-0.2881,-0.2881,-0.2882,-0.2838,-0.2836,-0.2834,0,0,0,0,0,-0.2465,-0.2478,-0.2486,-0.2494,-0.255,-0.258,-0.2588,-0.2588,-0.2585,-0.2584,-0.2642,-0.2629,-0.2755,-0.2753,-0.2772,-0.274,-0.2881,-0.2881,-0.2882,-0.2839,-0.2836,-0.2834,0,0,0,0,0,0,-0.2435,-0.2477,-0.2486,-0.251,-0.2532,-0.2572,-0.258,-0.2591,-0.2638,-0.2639,-0.268,-0.2693,-0.2741,-0.2767,-0.2762,-0.2786,-0.2798,-0.2803,-0.2759,-0.2757,-0.2754,-0.2739,-0.2737,0,0,0,0,0,-0.2437,-0.2457,-0.2495,-0.2512,-0.2525,-0.2558,-0.2573,-0.2578,-0.2624,-0.2638,-0.2675,-0.2718,-0.2766,-0.2782,-0.2834,-0.2882,-0.2874,-0.2859,-0.2857,-0.2855,-0.2855,-0.283,-0.2824,-0.2884,-0.2884,-0.2884,0,0,-0.243,-0.2457,-0.2467,-0.2507,-0.2531,-0.2561,-0.2558,-0.2579,-0.2598,-0.2651,-0.2694,-0.2733,-0.2785,-0.2822,-0.2839,-0.2832,-0.2831,-0.2855,-0.2853,-0.2854,-0.2829,-0.2823,-0.2818,-0.2884,-0.2884,-0.2884,0,0,-0.2434,-0.2452,-0.2475,-0.2499,-0.2533,-0.2556,-0.2559,-0.2599,-0.2601,-0.2663,-0.2693,-0.2718,-0.2799,-0.2809,-0.2831,-0.2857,-0.2834,-0.2853,-0.2817,-0.2792,-0.2786,-0.2781,-0.2748,-0.274,-0.2833,-0.2833,-0.2833,0,-0.2422,-0.2463,-0.2483,-0.2516,-0.2536,-0.2552,-0.2582,-0.2601,-0.2659,-0.267,-0.2661,-0.275,-0.2783,-0.2819,-0.2812,-0.2845,-0.2833,-0.2821,-0.2786,-0.2781,-0.2777,-0.2744,-0.2736,-0.2831,-0.2832,-0.2832,-0.2832,0,-0.2448,-0.2483,-0.2497,-0.2546,-0.2569,-0.2592,-0.2621,-0.2637,-0.2643,-0.2658,-0.2684,-0.2726,-0.2763,-0.2758,-0.28,-0.2781,-0.2783,-0.2797,-0.2786,-0.2767,-0.2735,-0.2727,-0.2828,-0.2829,-0.283,-0.283,0,0,-0.2405,-0.2498,-0.25,-0.2532,-0.2586,-0.2603,-0.2636,-0.2663,-0.2674,-0.2682,-0.2685,-0.2727,-0.272,-0.2746,-0.2767,-0.2735,-0.2684,-0.2747,-0.2747,-0.2701,-0.2621,-0.2545,-0.253,-0.269,-0.2689,-0.2688,-0.2605,0,-0.2414,-0.248,-0.2526,-0.2577,-0.261,-0.2643,-0.2672,-0.2695,-0.2702,-0.2708,-0.2695,-0.272,-0.2722,-0.2731,-0.2698,-0.2717,-0.2665,-0.2705,-0.2658,-0.2657,-0.258,-0.2519,-0.2396,-0.2305,-0.2597,-0.2596,-0.2595,0,-0.2418,-0.2461,-0.2517,-0.2597,-0.2612,-0.2639,-0.2672,-0.2705,-0.2719,-0.2723,-0.2715,-0.2721,-0.2704,-0.2692,-0.2648,-0.2677,-0.2639,-0.2622,-0.2618,-0.2559,-0.2566,-0.2376,-0.228,-0.2272,-0.2583,-0.2584,-0.2585,0,-0.2358,-0.2453,-0.2493,-0.2518,-0.2605,-0.2622,-0.2659,-0.2693,-0.2714,-0.2724,-0.2726,-0.2711,-0.2699,-0.2654,-0.2615,-0.2635,-0.2544,-0.2568,-0.2451,-0.2445,-0.2337,-0.2324,-0.2215,-0.2497,-0.2497,-0.2498,-0.2498,0,-0.2342,-0.2368,-0.2464,-0.2478,-0.2511,-0.2587,-0.2613,-0.2647,-0.2688,-0.2699,-0.272,-0.271,-0.2688,-0.2641,-0.26,-0.249,-0.2523,-0.2424,-0.2409,-0.2318,-0.2304,-0.2291,-0.2336,-0.2495,-0.2495,-0.2496,-0.2496,0,-0.2257,-0.2333,-0.2372,-0.2458,-0.2483,-0.2494,-0.2581,-0.2597,-0.2656,-0.2667,-0.2671,-0.2697,-0.2636,-0.2587,-0.2516,-0.2461,-0.233,-0.2325,-0.2213,-0.2185,-0.207,-0.2117,-0.2026,-0.1968,-0.218,-0.2178,-0.2175,0,-0.2218,-0.2232,-0.2318,-0.2337,-0.2369,-0.2415,-0.2446,-0.2546,-0.2575,-0.2649,-0.2641,-0.2613,-0.2522,-0.2389,-0.2312,-0.2183,-0.2208,-0.2019,-0.2026,-0.2018,-0.2061,-0.2118,-0.2081,-0.1864,-0.1859,-0.1856,-0.1853,0,-0.2111,-0.2141,-0.2169,-0.2209,-0.2244,-0.2279,-0.2339,-0.2345,-0.2457,-0.2427,-0.2392,-0.2325,-0.229,-0.211,-0.2003,-0.1929,-0.1976,-0.1939,-0.1953,-0.181,-0.1842,-0.1793,-0.1978,-0.182,-0.1823,-0.1825,-0.1827,-0.1829,-0.2003,-0.1996,-0.2032,-0.2054,-0.2089,-0.2066,-0.2,-0.2042,-0.1975,-0.1847,-0.2006,-0.1759,-0.1943,-0.1761,-0.1716,-0.1636,-0.1724,-0.1574,-0.1632,-0.1692,-0.1626,-0.1733,-0.1551,-0.1553,-0.1555,-0.1556,-0.1557,0,-0.186,-0.1866,-0.1878,-0.1869,-0.1804,-0.1887,-0.1867,-0.1734,-0.1518,-0.1402,-0.1255,-0.1188,-0.1189,-0.1341,-0.1428,-0.1357,-0.1351,-0.1331,-0.1386,-0.136,-0.1446,-0.1422,-0.1175,-0.1175,-0.1175,-0.1175,-0.1175,-0.1175,-0.1785,-0.174,-0.1747,-0.1573,-0.1544,-0.1356,-0.1267,-0.1083,-0.0925,-0.0544,-0.0333,-0.0279,-0.0724,-0.125,-0.134,-0.1277,-0.1273,-0.1212,-0.1277,-0.1355,-0.1384,-0.1411,-0.1395,-0.1147,-0.1147,-0.1113,-0.1113,-0.1113]},{"header":{"parameterUnit":"m.s-1","parameterCategory":2,"la1":30.2991,"la2":30.254,"lo1":-89.0895,"lo2":-89.0444,"dy":0.0017,"dx":0.0017,"nx":28,"ny":28,"refTime":"2024-07-03T03:00:00:Z","depth":"0","parameterNumber":3,"parameterNumberName":"V-component_of_CURRENTS"},"data":[0,0,0,0,0,0,0,0,0,0,0,0,0,0,0,0,0,0,0,0,0,0,0,0,0,0,0,0,0,0,0,0,0,0,0,0,0,0,0,0,0,0,0,0,0,0,0,0,0,0,0,0,0,0,0,0,0,0,-0.0222,-0.0222,0,-0.013,-0.0129,-0.0127,-0.0047,-0.0046,-0.0046,-0.0045,0.0198,0.0204,0.021,0,0,0,0,0,0,0,0,0,0,0,0,0,-0.0261,-0.0261,-0.0223,-0.0222,-0.0221,-0.013,-0.0129,-0.0127,-0.0047,-0.0046,-0.0045,-0.0045,0.0196,0.0203,0.021,0,0,0,0,0,0,0,0,0,0,0,0,0,-0.0211,-0.0261,-0.0223,-0.0172,-0.0167,-0.0131,-0.0129,-0.0127,-0.0047,-0.0046,-0.0045,-0.0044,0.0194,0.0202,0.0211,0.0247,0,0,0.0238,0.0242,0,0,0,0,0,0,0,0,-0.0214,-0.0209,-0.0181,-0.0176,-0.017,-0.0102,-0.0053,0.0005,-0.0047,-0.0089,-0.0045,-0.0044,0.0109,0.0125,0.0143,0.0259,0.0269,0.0239,0.0244,0.0248,0.0251,0,0,0,0,0,0,0,-0.0218,-0.0213,-0.0182,-0.018,-0.0173,-0.0131,-0.0123,-0.0042,0.0009,-0.0085,-0.008,-0.0076,0.0113,0.0134,0.0149,0.0273,0.0239,0.0246,0.0252,0.0255,0.0438,0.0438,0,0,0,0,0,0,-0.0241,-0.0216,-0.0185,-0.018,-0.0194,-0.0132,-0.0123,-0.0122,0.0005,0.0023,-0.0076,-0.0072,0.0118,0.0139,0.0158,0.0211,0.0248,0.0256,0.0261,0.0439,0.0438,0.0437,0,0,0,0,0,0,-0.0242,-0.0239,-0.0189,-0.0198,-0.0189,-0.0133,-0.0132,-0.0121,-0.0101,0.0009,0.0031,-0.0069,0.012,0.0146,0.0245,0.0221,0.026,0.0268,0.0439,0.0438,0.0438,0.0316,0,0,0,0,0,0,-0.0244,-0.024,-0.0247,-0.02,-0.019,-0.0178,-0.0133,-0.012,-0.0101,-0.0094,0.0024,0.0047,0.0122,0.0231,0.0254,0.0234,0.0275,0.044,0.0439,0.0438,0.032,0.0311,0.0303,0,0,0,0,0,-0.0245,-0.026,-0.0248,-0.0244,-0.0202,-0.0179,-0.017,-0.0123,-0.0102,-0.01,-0.0004,0.0043,0.024,0.0239,0.0265,0.0248,0.044,0.0439,0.0438,0.0324,0.0313,0.0303,0,0,0,0,0,0,-0.0279,-0.0253,-0.0238,-0.0244,-0.022,-0.0167,-0.0162,-0.0133,-0.0061,-0.0047,0.006,0.009,0.0171,0.0225,0.0221,0.0296,0.0339,0.0343,0.0243,0.0234,0.0225,0.019,0.0283,0,0,0,0,0,-0.0294,-0.0299,-0.0265,-0.0271,-0.0262,-0.0215,-0.02,-0.0172,-0.0107,-0.0076,0.0002,0.0091,0.0185,0.0222,0.0314,0.0356,0.0405,0.0355,0.0346,0.0338,0.0327,0.0381,0.0375,0.0434,0.0434,0.0434,0,0,-0.0309,-0.0296,-0.0298,-0.0279,-0.0254,-0.025,-0.0203,-0.019,-0.018,-0.0057,-0.0013,0.0081,0.0197,0.0257,0.0291,0.0297,0.0347,0.0337,0.0329,0.0323,0.0379,0.0373,0.0368,0.0433,0.0434,0.0434,0,0,-0.0348,-0.0332,-0.035,-0.0336,-0.0313,-0.0281,-0.0284,-0.024,-0.0213,-0.0161,-0.0062,0.0009,0.013,0.0198,0.0253,0.0247,0.0318,0.027,0.018,0.0231,0.0226,0.0223,0.0271,0.0273,0.0242,0.0242,0.0242,0,-0.037,-0.0387,-0.0352,-0.0365,-0.0358,-0.0302,-0.0317,-0.0283,-0.0213,-0.0187,-0.0162,0.001,0.0095,0.018,0.0171,0.0224,0.0271,0.0209,0.0218,0.0215,0.0214,0.0265,0.0268,0.0236,0.0237,0.0237,0.0238,0,-0.0419,-0.0434,-0.0443,-0.044,-0.0424,-0.043,-0.0383,-0.0363,-0.0325,-0.0284,-0.0202,-0.0091,0.0005,0.0031,0.0102,0.0133,0.0177,0.0217,0.0237,0.02,0.0257,0.0262,0.0227,0.0229,0.0231,0.0233,0,0,-0.0475,-0.048,-0.0486,-0.05,-0.0467,-0.0463,-0.0443,-0.0409,-0.0394,-0.0336,-0.0307,-0.0187,-0.0135,-0.007,0.0018,0.004,0.0061,0.0103,0.0109,0.0138,0.0178,0.0248,0.0262,0.0107,0.0108,0.0108,0.0219,0,-0.0529,-0.0581,-0.0556,-0.0591,-0.061,-0.0551,-0.0536,-0.0492,-0.044,-0.0397,-0.0304,-0.0228,-0.0169,-0.0123,-0.0091,0.005,0.0072,0.0027,0.0222,0.0227,0.0283,0.027,0.0352,0.0462,0.0226,0.0227,0.0227,0,-0.0591,-0.0617,-0.0667,-0.0671,-0.0671,-0.0673,-0.0635,-0.0615,-0.0529,-0.0487,-0.0413,-0.0316,-0.0238,-0.0196,-0.0034,-0.006,0.0037,0.0119,0.0126,0.0237,0.0308,0.0465,0.0483,0.0653,0.0237,0.0236,0.0236,0,-0.0662,-0.0695,-0.074,-0.0744,-0.0731,-0.0733,-0.0717,-0.0646,-0.0625,-0.054,-0.0509,-0.0388,-0.0314,-0.0196,-0.0018,-0.0024,0.0158,0.018,0.0329,0.0336,0.0467,0.0484,0.0661,0.0268,0.0268,0.0268,0.0267,0,-0.0736,-0.0772,-0.0781,-0.0809,-0.085,-0.0806,-0.0821,-0.0779,-0.0711,-0.0673,-0.0564,-0.0489,-0.0312,-0.017,-0.0035,0.0177,0.0153,0.0314,0.0369,0.0428,0.0439,0.0644,0.0705,0.0272,0.0271,0.027,0.0269,0,-0.0804,-0.0815,-0.0869,-0.0881,-0.0889,-0.0916,-0.0904,-0.0907,-0.0828,-0.0772,-0.0745,-0.0559,-0.0356,-0.0174,0.0054,0.0173,0.0478,0.0432,0.0487,0.0546,0.0825,0.0875,0.1087,0.1204,0.0601,0.0603,0.0605,0,-0.0843,-0.0878,-0.0933,-0.0975,-0.0987,-0.1019,-0.1039,-0.0979,-0.0964,-0.0793,-0.0766,-0.055,-0.0347,0.0004,0.0253,0.0508,0.0613,0.0702,0.0695,0.0853,0.095,0.0967,0.1051,0.0822,0.0826,0.0829,0.0831,0,-0.0904,-0.0923,-0.0969,-0.1056,-0.1104,-0.114,-0.1152,-0.1145,-0.1038,-0.0928,-0.0697,-0.0504,-0.0146,0.023,0.0528,0.0668,0.0851,0.077,0.0933,0.1133,0.1166,0.1302,0.0728,0.0858,0.0855,0.0853,0.0852,0.0851,-0.0936,-0.099,-0.105,-0.1118,-0.1179,-0.12,-0.1168,-0.1137,-0.1028,-0.0771,-0.061,-0.0211,0.0263,0.0732,0.0879,0.1181,0.11,0.1275,0.1321,0.1321,0.1444,0.0918,0.1109,0.1108,0.1107,0.1106,0.1105,0,-0.0952,-0.1014,-0.1102,-0.1153,-0.1173,-0.1201,-0.1183,-0.1077,-0.088,-0.0672,-0.0355,0.0351,0.0816,0.1164,0.1551,0.173,0.1759,0.1797,0.1852,0.1911,0.1464,0.1485,0.1768,0.1768,0.1768,0.1768,0.1768,0.1767,-0.0964,-0.1036,-0.1076,-0.1096,-0.1113,-0.1044,-0.0986,-0.0826,-0.0656,-0.019,0.0226,0.0566,0.1109,0.1799,0.2182,0.221,0.2383,0.2345,0.2425,0.2127,0.2082,0.2038,0.2074,0.2476,0.2477,0.2882,0.2886,0.2889]}],[{"header":{"parameterUnit":"m.s-1","parameterCategory":2,"la1":30.2991,"la2":30.254,"lo1":-89.0895,"lo2":-89.0444,"dy":0.0017,"dx":0.0017,"nx":28,"ny":28,"refTime":"2024-07-03T03:00:00:Z","depth":"2","parameterNumber":2,"parameterNumberName":"U-component_of_CURRENTS"},"data":[0,0,0,0,0,0,0,0,0,0,0,0,0,0,0,0,0,0,0,0,0,0,0,0,0,0,0,0,0,0,0,0,0,0,0,0,0,0,0,0,0,0,0,0,0,0,0,0,0,0,0,0,0,0,0,0,0,0,-0.2426,-0.2427,0,-0.2481,-0.2482,-0.2482,-0.2452,-0.2451,-0.245,-0.2448,-0.2441,-0.2442,-0.2443,0,0,0,0,0,0,0,0,0,0,0,0,0,-0.2329,-0.2331,-0.2426,-0.2427,-0.2428,-0.2481,-0.2482,-0.2482,-0.2453,-0.2451,-0.2449,-0.2448,-0.2441,-0.2442,-0.2443,0,0,0,0,0,0,0,0,0,0,0,0,0,-0.2375,-0.2331,-0.2426,-0.2421,-0.2421,-0.2481,-0.2482,-0.2482,-0.2453,-0.2451,-0.2449,-0.2447,-0.244,-0.2442,-0.2444,-0.2494,0,0,-0.2449,-0.2449,0,0,0,0,0,0,0,0,-0.2372,-0.2378,-0.2421,-0.2421,-0.2421,-0.2459,-0.2445,-0.2484,-0.2453,-0.2439,-0.2448,-0.2446,-0.2444,-0.2445,-0.2459,-0.2494,-0.2494,-0.2449,-0.245,-0.245,-0.2451,0,0,0,0,0,0,0,-0.2369,-0.2376,-0.2446,-0.2422,-0.2422,-0.2427,-0.2431,-0.2452,-0.245,-0.244,-0.2439,-0.2448,-0.2443,-0.2457,-0.2458,-0.2494,-0.2449,-0.245,-0.2451,-0.2452,-0.2553,-0.2555,0,0,0,0,0,0,-0.2366,-0.2373,-0.2445,-0.2448,-0.2393,-0.243,-0.2434,-0.2448,-0.2451,-0.2451,-0.2449,-0.2446,-0.2456,-0.2456,-0.2458,-0.2474,-0.245,-0.2452,-0.2453,-0.2551,-0.2553,-0.2555,0,0,0,0,0,0,-0.2364,-0.2372,-0.2443,-0.2412,-0.2422,-0.2434,-0.2449,-0.245,-0.2457,-0.2459,-0.2456,-0.2455,-0.2454,-0.2455,-0.2462,-0.2474,-0.2453,-0.2454,-0.2549,-0.2552,-0.2554,-0.2534,0,0,0,0,0,0,-0.2361,-0.2371,-0.2379,-0.2413,-0.2423,-0.2466,-0.2452,-0.2453,-0.2467,-0.2463,-0.2464,-0.2461,-0.2453,-0.2459,-0.2463,-0.2476,-0.2455,-0.2547,-0.255,-0.2553,-0.2532,-0.2535,-0.2538,0,0,0,0,0,-0.2358,-0.2371,-0.2379,-0.2388,-0.2434,-0.2467,-0.2473,-0.2473,-0.2469,-0.2472,-0.2468,-0.246,-0.2483,-0.2461,-0.2466,-0.248,-0.2545,-0.2549,-0.2553,-0.2531,-0.2535,-0.2538,0,0,0,0,0,0,-0.2329,-0.237,-0.238,-0.2404,-0.243,-0.2462,-0.2469,-0.248,-0.2485,-0.2478,-0.2474,-0.2472,-0.2477,-0.2497,-0.2473,-0.2524,-0.2518,-0.2523,-0.25,-0.2504,-0.2507,-0.2503,-0.2457,0,0,0,0,0,-0.2331,-0.2351,-0.239,-0.2409,-0.2423,-0.2451,-0.2466,-0.2472,-0.2484,-0.2485,-0.2489,-0.25,-0.2504,-0.2514,-0.2519,-0.2555,-0.2541,-0.2574,-0.2577,-0.2579,-0.2583,-0.2564,-0.2564,-0.2568,-0.2568,-0.2568,0,0,-0.2326,-0.2352,-0.2363,-0.2405,-0.2425,-0.2457,-0.2453,-0.2477,-0.2497,-0.2485,-0.2506,-0.25,-0.2512,-0.253,-0.2539,-0.2545,-0.2571,-0.2584,-0.2585,-0.2588,-0.2567,-0.2566,-0.2566,-0.257,-0.257,-0.257,0,0,-0.2331,-0.2349,-0.2371,-0.2398,-0.2435,-0.2456,-0.2464,-0.2501,-0.2504,-0.2531,-0.2518,-0.2518,-0.2552,-0.255,-0.2557,-0.2592,-0.2573,-0.261,-0.2632,-0.2613,-0.2611,-0.2609,-0.2579,-0.2575,-0.2627,-0.2627,-0.2627,0,-0.2322,-0.236,-0.2381,-0.2413,-0.2437,-0.2457,-0.2489,-0.2507,-0.2538,-0.2544,-0.2533,-0.2557,-0.2558,-0.2573,-0.2582,-0.2593,-0.2579,-0.2607,-0.2611,-0.261,-0.2608,-0.2578,-0.2574,-0.2626,-0.2626,-0.2626,-0.2626,0,-0.2346,-0.2381,-0.2395,-0.2444,-0.247,-0.2497,-0.2531,-0.2549,-0.2559,-0.2573,-0.2579,-0.2575,-0.2589,-0.2597,-0.2599,-0.2607,-0.2596,-0.2597,-0.2589,-0.2605,-0.2574,-0.2569,-0.2625,-0.2626,-0.2626,-0.2626,0,0,-0.2309,-0.2397,-0.2399,-0.2431,-0.2489,-0.2509,-0.2547,-0.258,-0.2595,-0.2607,-0.2617,-0.2623,-0.2614,-0.2623,-0.2622,-0.2618,-0.2587,-0.2614,-0.2613,-0.256,-0.2534,-0.2453,-0.244,-0.2582,-0.2582,-0.2582,-0.251,0,-0.2319,-0.2382,-0.2426,-0.2479,-0.2513,-0.255,-0.2584,-0.2613,-0.2627,-0.2639,-0.2628,-0.2633,-0.2628,-0.2628,-0.2619,-0.2598,-0.2578,-0.2606,-0.2549,-0.2547,-0.2452,-0.2433,-0.2256,-0.2171,-0.2506,-0.2505,-0.2505,0,-0.2324,-0.2366,-0.2422,-0.2501,-0.2517,-0.2549,-0.2591,-0.2626,-0.265,-0.266,-0.266,-0.2653,-0.265,-0.2635,-0.2595,-0.2614,-0.2574,-0.255,-0.2547,-0.2476,-0.2457,-0.2215,-0.2151,-0.2497,-0.2498,-0.2498,-0.2499,0,-0.2271,-0.2362,-0.2402,-0.2428,-0.2516,-0.2537,-0.2577,-0.2619,-0.2643,-0.2664,-0.2673,-0.2665,-0.2654,-0.2616,-0.2571,-0.2585,-0.2507,-0.2518,-0.2399,-0.2393,-0.2234,-0.2214,-0.2467,-0.2467,-0.2467,-0.2468,-0.2468,0,-0.2257,-0.2285,-0.2378,-0.2393,-0.2429,-0.2506,-0.2537,-0.2575,-0.2625,-0.2641,-0.267,-0.2665,-0.2649,-0.2608,-0.2565,-0.2459,-0.2496,-0.2389,-0.2365,-0.2223,-0.2204,-0.2491,-0.2495,-0.2465,-0.2465,-0.2466,-0.2466,0,-0.2182,-0.2253,-0.2294,-0.2381,-0.2404,-0.2421,-0.2507,-0.2527,-0.2595,-0.2613,-0.2621,-0.2655,-0.2598,-0.2557,-0.2488,-0.2437,-0.2356,-0.2304,-0.2133,-0.2091,-0.2258,-0.2262,-0.2171,-0.2167,-0.2164,-0.2162,-0.216,0,-0.2148,-0.2162,-0.2246,-0.2263,-0.2297,-0.2345,-0.2375,-0.2477,-0.2508,-0.2592,-0.2587,-0.257,-0.2505,-0.2379,-0.228,-0.2158,-0.2244,-0.1948,-0.1942,-0.2239,-0.2226,-0.2235,-0.2243,-0.172,-0.1715,-0.171,-0.1707,0,-0.2056,-0.2085,-0.2112,-0.2148,-0.2181,-0.2219,-0.2279,-0.2305,-0.242,-0.245,-0.2464,-0.2423,-0.2317,-0.211,-0.1971,-0.1886,-0.1959,-0.1852,-0.2182,-0.1833,-0.1811,-0.18,-0.1823,-0.1666,-0.167,-0.1673,-0.1676,-0.1677,-0.1962,-0.1955,-0.1988,-0.2001,-0.2041,-0.2051,-0.2041,-0.2125,-0.2147,-0.2171,-0.2264,-0.2152,-0.2088,-0.1774,-0.1648,-0.1547,-0.1683,-0.1608,-0.1623,-0.1643,-0.1613,-0.1588,-0.1395,-0.1398,-0.14,-0.1402,-0.1403,0,-0.1829,-0.183,-0.1841,-0.1841,-0.1806,-0.1895,-0.1935,-0.1887,-0.1865,-0.1935,-0.1933,-0.1692,-0.1534,-0.1462,-0.1241,-0.119,-0.1189,-0.1138,-0.1144,-0.1184,-0.1219,-0.117,-0.0833,-0.0832,-0.0831,-0.0829,0,0,-0.176,-0.1709,-0.1706,-0.1583,-0.1595,-0.1532,-0.153,-0.1476,-0.1479,-0.1421,-0.1397,-0.1521,-0.1455,-0.1187,-0.1087,-0.0928,-0.1056,-0.0874,-0.1327,-0.1376,-0.141,-0.1476,-0.1443,0,0,0,0,0]},{"header":{"parameterUnit":"m.s-1","parameterCategory":2,"la1":30.2991,"la2":30.254,"lo1":-89.0895,"lo2":-89.0444,"dy":0.0017,"dx":0.0017,"nx":28,"ny":28,"refTime":"2024-07-03T03:00:00:Z","depth":"2","parameterNumber":3,"parameterNumberName":"V-component_of_CURRENTS"},"data":[0,0,0,0,0,0,0,0,0,0,0,0,0,0,0,0,0,0,0,0,0,0,0,0,0,0,0,0,0,0,0,0,0,0,0,0,0,0,0,0,0,0,0,0,0,0,0,0,0,0,0,0,0,0,0,0,0,0,-0.0241,-0.024,0,-0.0161,-0.016,-0.0159,-0.0088,-0.0088,-0.0087,-0.0086,-0.002,-0.0019,-0.0017,0,0,0,0,0,0,0,0,0,0,0,0,0,-0.028,-0.028,-0.0241,-0.024,-0.0239,-0.0162,-0.016,-0.0159,-0.0088,-0.0088,-0.0087,-0.0086,-0.002,-0.0019,-0.0017,0,0,0,0,0,0,0,0,0,0,0,0,0,-0.0236,-0.0279,-0.0241,-0.0196,-0.0191,-0.0162,-0.016,-0.0159,-0.0089,-0.0088,-0.0087,-0.0086,-0.002,-0.0019,-0.0017,-0.0026,0,0,-0.0012,-0.0011,0,0,0,0,0,0,0,0,-0.0239,-0.0235,-0.0203,-0.0199,-0.0194,-0.0135,-0.015,-0.0116,-0.0089,-0.0126,-0.0086,-0.0085,-0.0062,-0.0056,-0.0041,-0.0023,-0.002,-0.0012,-0.0011,-0.001,-0.0009,0,0,0,0,0,0,0,-0.0242,-0.0237,-0.0207,-0.0203,-0.0197,-0.0162,-0.0155,-0.0142,-0.0099,-0.0122,-0.0117,-0.0112,-0.0058,-0.0043,-0.0039,-0.0019,-0.0012,-0.001,-0.0009,-0.0008,0.0033,0.0033,0,0,0,0,0,0,-0.0259,-0.0241,-0.021,-0.0205,-0.0216,-0.0163,-0.0155,-0.0154,-0.0099,-0.009,-0.0113,-0.0109,-0.0046,-0.0041,-0.0036,-0.0024,-0.001,-0.0008,-0.0007,0.0033,0.0033,0.0033,0,0,0,0,0,0,-0.0261,-0.0258,-0.0213,-0.0222,-0.0214,-0.0164,-0.0163,-0.0153,-0.0135,-0.0092,-0.0082,-0.0106,-0.0045,-0.0039,-0.0024,-0.0022,-0.0007,-0.0006,0.0033,0.0033,0.0033,-0.0013,0,0,0,0,0,0,-0.0262,-0.0259,-0.0265,-0.0224,-0.0215,-0.0203,-0.0163,-0.0152,-0.0134,-0.0128,-0.0083,-0.0075,-0.0044,-0.0027,-0.0022,-0.0019,-0.0005,0.0033,0.0033,0.0033,-0.0011,-0.0014,-0.0017,0,0,0,0,0,-0.0264,-0.0277,-0.0266,-0.0262,-0.0225,-0.0203,-0.0196,-0.0154,-0.0135,-0.0133,-0.01,-0.0076,-0.0022,-0.0026,-0.0021,-0.0017,0.0033,0.0033,0.0033,-0.001,-0.0014,-0.0017,0,0,0,0,0,0,-0.0296,-0.0271,-0.0257,-0.0262,-0.0239,-0.0192,-0.0188,-0.0162,-0.0134,-0.0129,-0.0084,-0.0075,-0.0063,-0.0035,-0.0041,-0.0002,0.0012,0.0014,-0.0022,-0.0025,-0.0028,-0.0034,-0.0003,0,0,0,0,0,-0.031,-0.0313,-0.0281,-0.0286,-0.0278,-0.0236,-0.0223,-0.0197,-0.0167,-0.0152,-0.0119,-0.0084,-0.0059,-0.004,-0.002,-0.0003,0.0034,0.0007,0.0004,0.0001,0.0001,0.0059,0.0062,0.0034,0.0034,0.0034,0,0,-0.0324,-0.0311,-0.0312,-0.0294,-0.0271,-0.0267,-0.0225,-0.0212,-0.0203,-0.0152,-0.0134,-0.0104,-0.0061,-0.004,-0.003,-0.0014,0.0028,0.0002,-0.0001,0.0,0.006,0.0063,0.0065,0.0034,0.0034,0.0034,0,0,-0.0358,-0.0344,-0.0359,-0.0346,-0.0324,-0.0295,-0.0297,-0.0257,-0.0233,-0.0218,-0.0174,-0.0139,-0.0107,-0.0061,-0.0037,-0.0043,0.0001,-0.0038,-0.0045,0.0012,0.0014,0.0017,0.0063,0.007,-0.0026,-0.0026,-0.0027,0,-0.0378,-0.0392,-0.036,-0.0371,-0.0363,-0.0314,-0.0324,-0.0295,-0.0254,-0.0235,-0.0221,-0.0148,-0.0112,-0.0067,-0.0061,-0.0049,-0.0015,-0.0038,0.0008,0.0012,0.0016,0.0062,0.0071,-0.0029,-0.0028,-0.0028,-0.0028,0,-0.0421,-0.0432,-0.044,-0.0436,-0.042,-0.0425,-0.0381,-0.0363,-0.033,-0.0292,-0.025,-0.0193,-0.0142,-0.0122,-0.0093,-0.0045,-0.003,-0.0014,0.0014,0.0016,0.0064,0.0074,-0.0032,-0.0031,-0.003,-0.003,0,0,-0.0471,-0.0473,-0.0478,-0.0487,-0.0457,-0.0451,-0.0433,-0.0398,-0.038,-0.033,-0.0296,-0.0235,-0.0191,-0.016,-0.011,-0.0051,0.0007,-0.0021,-0.0017,0.002,0.0125,0.0165,0.018,0.0031,0.0033,0.0034,0.0146,0,-0.0517,-0.0561,-0.0537,-0.0563,-0.0578,-0.0525,-0.0509,-0.0466,-0.0417,-0.0373,-0.0292,-0.025,-0.0208,-0.0179,-0.0115,-0.0028,0.0032,-0.0025,0.0122,0.0126,0.0159,0.0193,0.0179,0.0281,0.0156,0.0158,0.0159,0,-0.0572,-0.0592,-0.0633,-0.0628,-0.0627,-0.0627,-0.0585,-0.0564,-0.0481,-0.044,-0.037,-0.0305,-0.0212,-0.018,-0.0023,-0.0063,0.0025,0.0097,0.0103,0.0164,0.0185,0.0261,0.0304,0.0176,0.0175,0.0174,0.0173,0,-0.0633,-0.0658,-0.0693,-0.0695,-0.0678,-0.0677,-0.0659,-0.059,-0.0565,-0.048,-0.0446,-0.0332,-0.0265,-0.0149,0.0005,-0.0009,0.0181,0.0182,0.0302,0.0305,0.0335,0.0339,0.0295,0.0295,0.0295,0.0295,0.0294,0,-0.0697,-0.0725,-0.073,-0.0753,-0.0784,-0.074,-0.0744,-0.0704,-0.0633,-0.0592,-0.049,-0.0417,-0.0252,-0.012,0.0001,0.019,0.0182,0.0311,0.0345,0.0319,0.0319,0.026,0.0254,0.0299,0.0298,0.0297,0.0296,0,-0.0759,-0.0765,-0.0809,-0.0814,-0.0819,-0.0841,-0.082,-0.081,-0.0734,-0.0675,-0.0649,-0.0473,-0.0288,-0.0122,0.0094,0.0196,0.036,0.0428,0.0383,0.041,0.0442,0.0433,0.0565,0.0567,0.057,0.0571,0.0573,0,-0.0797,-0.0826,-0.0869,-0.0903,-0.0912,-0.0934,-0.0941,-0.0877,-0.0849,-0.0694,-0.0661,-0.0466,-0.0297,0.0024,0.024,0.0463,0.0442,0.0564,0.0542,0.0454,0.0474,0.0461,0.0449,0.0561,0.0563,0.0564,0.0565,0,-0.0857,-0.0872,-0.091,-0.0986,-0.102,-0.1046,-0.1042,-0.1029,-0.0921,-0.0834,-0.0649,-0.0494,-0.016,0.0125,0.04,0.0516,0.0522,0.0593,0.0537,0.0491,0.046,0.0476,0.0463,0.0574,0.0573,0.0572,0.0572,0.0572,-0.0895,-0.0943,-0.0996,-0.1063,-0.1106,-0.1131,-0.1141,-0.1082,-0.1007,-0.082,-0.0673,-0.0403,-0.0124,0.0303,0.0499,0.0664,0.0652,0.0678,0.0672,0.0665,0.064,0.0614,0.0752,0.0752,0.0752,0.0752,0.0753,0,-0.094,-0.0992,-0.1066,-0.1141,-0.1196,-0.1204,-0.1184,-0.1139,-0.1028,-0.079,-0.0592,-0.0285,0.004,0.0314,0.0612,0.0778,0.074,0.0774,0.0701,0.0692,0.0684,0.0656,0.0775,0.0776,0.0776,0.0776,0,0,-0.0966,-0.1045,-0.1087,-0.1193,-0.1251,-0.1305,-0.1292,-0.116,-0.0978,-0.0715,-0.0484,-0.0239,0.0105,0.0303,0.0512,0.0671,0.0629,0.0666,0.0634,0.0516,0.0506,0.0618,0.0565,0,0,0,0,0]}],[{"header":{"parameterUnit":"m.s-1","parameterCategory":2,"la1":30.2991,"la2":30.254,"lo1":-89.0895,"lo2":-89.0444,"dy":0.0017,"dx":0.0017,"nx":28,"ny":28,"refTime":"2024-07-03T03:00:00:Z","depth":"4","parameterNumber":2,"parameterNumberName":"U-component_of_CURRENTS"},"data":[0,0,0,0,0,0,0,0,0,0,0,0,0,0,0,0,0,0,0,0,0,0,0,0,0,0,0,0,0,0,0,0,0,0,0,0,0,0,0,0,0,0,0,0,0,0,0,0,0,0,0,0,0,0,0,0,0,0,-0.1771,-0.1772,0,-0.1862,-0.1863,-0.1864,-0.1902,-0.1902,-0.1902,-0.1902,-0.1914,-0.1915,-0.1915,0,0,0,0,0,0,0,0,0,0,0,0,0,-0.1646,-0.1647,-0.177,-0.1772,-0.1773,-0.1862,-0.1863,-0.1864,-0.1902,-0.1902,-0.1902,-0.1903,-0.1914,-0.1914,-0.1915,0,0,0,0,0,0,0,0,0,0,0,0,0,-0.1712,-0.1648,-0.177,-0.1805,-0.1809,-0.1862,-0.1863,-0.1865,-0.1902,-0.1902,-0.1902,-0.1903,-0.1914,-0.1914,-0.1915,-0.1915,0,0,-0.1916,-0.1916,0,0,0,0,0,0,0,0,-0.1708,-0.1716,-0.1798,-0.1803,-0.1808,-0.1873,-0.1824,-0.1879,-0.1902,-0.1864,-0.1902,-0.1903,-0.1895,-0.1897,-0.1911,-0.1916,-0.1916,-0.1916,-0.1916,-0.1916,-0.1917,0,0,0,0,0,0,0,-0.1704,-0.1713,-0.1804,-0.18,-0.1806,-0.1822,-0.1831,-0.1835,-0.1874,-0.1867,-0.1871,-0.1886,-0.1896,-0.1911,-0.1912,-0.1917,-0.1916,-0.1916,-0.1917,-0.1917,-0.1967,-0.1968,0,0,0,0,0,0,-0.1697,-0.1708,-0.1801,-0.1807,-0.176,-0.1825,-0.1835,-0.185,-0.1876,-0.1882,-0.1885,-0.1887,-0.191,-0.1911,-0.1912,-0.1969,-0.1916,-0.1917,-0.1917,-0.1966,-0.1967,-0.1968,0,0,0,0,0,0,-0.1694,-0.1705,-0.1798,-0.1762,-0.1775,-0.1827,-0.1844,-0.1852,-0.1895,-0.1891,-0.1895,-0.1924,-0.191,-0.1911,-0.1937,-0.1967,-0.1917,-0.1917,-0.1964,-0.1966,-0.1968,-0.2046,0,0,0,0,0,0,-0.169,-0.1703,-0.1726,-0.1762,-0.1777,-0.1843,-0.1844,-0.1854,-0.1903,-0.1907,-0.1924,-0.1924,-0.191,-0.1936,-0.1937,-0.1967,-0.1918,-0.1963,-0.1965,-0.1967,-0.2042,-0.205,-0.2057,0,0,0,0,0,-0.1685,-0.1708,-0.1726,-0.1738,-0.1802,-0.1844,-0.1854,-0.1888,-0.1906,-0.1927,-0.1941,-0.1925,-0.195,-0.1938,-0.1939,-0.1969,-0.1962,-0.1964,-0.1967,-0.2039,-0.2049,-0.2057,0,0,0,0,0,0,-0.1668,-0.1715,-0.1736,-0.1774,-0.1815,-0.1852,-0.1882,-0.1908,-0.1939,-0.1949,-0.1942,-0.1943,-0.1971,-0.1961,-0.1948,-0.1988,-0.1952,-0.1955,-0.2007,-0.2016,-0.2023,-0.202,-0.1918,0,0,0,0,0,-0.1675,-0.1706,-0.1751,-0.1786,-0.1807,-0.1853,-0.1881,-0.1907,-0.1935,-0.1952,-0.1968,-0.1977,-0.1978,-0.1991,-0.1988,-0.2018,-0.1991,-0.2036,-0.2044,-0.205,-0.2048,-0.2038,-0.2045,-0.1976,-0.1976,-0.1976,0,0,-0.1682,-0.1712,-0.1732,-0.1786,-0.1821,-0.1861,-0.187,-0.1921,-0.196,-0.1945,-0.2006,-0.2003,-0.199,-0.2017,-0.203,-0.2018,-0.2056,-0.2053,-0.2059,-0.2053,-0.2042,-0.2048,-0.2054,-0.1978,-0.1978,-0.1977,0,0,-0.1698,-0.1735,-0.1765,-0.1801,-0.1859,-0.1886,-0.1908,-0.1965,-0.1996,-0.2047,-0.204,-0.206,-0.2082,-0.2078,-0.2075,-0.2123,-0.2089,-0.2128,-0.2175,-0.2167,-0.2173,-0.2177,-0.2152,-0.2153,-0.2141,-0.2141,-0.2141,0,-0.1707,-0.175,-0.1781,-0.1819,-0.1856,-0.1901,-0.1944,-0.1981,-0.2043,-0.2065,-0.2074,-0.2107,-0.2106,-0.2123,-0.2145,-0.2141,-0.2124,-0.2144,-0.2177,-0.2181,-0.2184,-0.2157,-0.2157,-0.2145,-0.2145,-0.2144,-0.2144,0,-0.1735,-0.1786,-0.1807,-0.1869,-0.1909,-0.1955,-0.2007,-0.2055,-0.2099,-0.213,-0.2171,-0.2175,-0.219,-0.2201,-0.2193,-0.2219,-0.2195,-0.2181,-0.2155,-0.2196,-0.2164,-0.2164,-0.2151,-0.2149,-0.2148,-0.2147,0,0,-0.171,-0.1809,-0.182,-0.1861,-0.1942,-0.1973,-0.2041,-0.2101,-0.214,-0.2195,-0.2234,-0.226,-0.2266,-0.2262,-0.2258,-0.2266,-0.2284,-0.2247,-0.2245,-0.2223,-0.2258,-0.2107,-0.2091,-0.2281,-0.2282,-0.2282,-0.2227,0,-0.1727,-0.18,-0.1849,-0.1929,-0.197,-0.2033,-0.2088,-0.2147,-0.2194,-0.224,-0.2256,-0.2285,-0.2287,-0.23,-0.2311,-0.2286,-0.2286,-0.2299,-0.222,-0.2217,-0.2078,-0.2086,-0.2283,-0.2226,-0.2226,-0.2226,-0.2226,0,-0.1731,-0.1783,-0.1861,-0.196,-0.1984,-0.2039,-0.2123,-0.2177,-0.2241,-0.2276,-0.231,-0.2319,-0.2344,-0.2335,-0.2322,-0.2334,-0.2303,-0.2283,-0.228,-0.2107,-0.2064,-0.2175,-0.2223,-0.2224,-0.2224,-0.2224,-0.2224,0,-0.1677,-0.1789,-0.1851,-0.1886,-0.2,-0.205,-0.211,-0.2188,-0.223,-0.2294,-0.2321,-0.2347,-0.2359,-0.2342,-0.2309,-0.2323,-0.227,-0.2276,-0.2106,-0.2095,-0.2215,-0.2211,-0.2252,-0.2252,-0.2252,-0.2252,-0.2252,0,-0.1655,-0.1709,-0.1838,-0.1867,-0.1938,-0.203,-0.21,-0.216,-0.2239,-0.2269,-0.2332,-0.2337,-0.2365,-0.234,-0.2308,-0.2189,-0.2265,-0.21,-0.2067,-0.2249,-0.225,-0.2214,-0.221,-0.225,-0.225,-0.2251,-0.2251,0,-0.1577,-0.1668,-0.1743,-0.1873,-0.1915,-0.1962,-0.2088,-0.2124,-0.222,-0.2257,-0.2278,-0.2335,-0.229,-0.2279,-0.2233,-0.2162,-0.2079,-0.2015,-0.2196,-0.2176,-0.1913,-0.1915,-0.1824,-0.1818,-0.1813,-0.1809,-0.1805,0,-0.154,-0.1574,-0.1718,-0.1758,-0.1822,-0.1912,-0.1963,-0.2089,-0.2125,-0.2226,-0.2221,-0.2227,-0.2234,-0.2034,-0.2054,-0.1951,-0.1928,-0.1884,-0.1915,-0.1891,-0.1868,-0.1878,-0.1885,-0.1797,-0.1796,-0.1795,-0.1793,0,-0.1456,-0.1523,-0.1579,-0.1657,-0.1727,-0.1789,-0.1878,-0.1891,-0.2016,-0.2135,-0.2088,-0.2043,-0.198,-0.1919,-0.1838,-0.1778,-0.1917,-0.1832,-0.1843,-0.1871,-0.1858,-0.1842,-0.1856,-0.1776,-0.1779,-0.178,-0.1781,0,-0.1388,-0.1403,-0.1477,-0.1525,-0.1604,-0.1617,-0.1695,-0.173,-0.1779,-0.1915,-0.1891,-0.1894,-0.1955,-0.1826,-0.176,-0.1674,-0.1658,-0.1619,-0.1641,-0.166,-0.163,-0.159,-0.1383,0,0,0,0,0,-0.1305,-0.1296,-0.1335,-0.1371,-0.144,-0.1473,-0.1604,-0.1689,-0.1826,-0.1742,-0.1813,-0.1743,-0.1646,-0.1656,-0.1526,-0.1674,-0.1656,-0.1518,-0.1624,-0.168,-0.17,-0.1678,0,0,0,0,0,0,-0.1248,-0.1277,-0.1278,-0.1212,-0.1202,-0.1251,-0.1322,-0.143,-0.1405,-0.1555,-0.1501,-0.1624,-0.154,-0.1656,-0.1474,-0.1476,-0.1507,-0.1544,-0.154,-0.1669,-0.1687,-0.1703,-0.1688,0,0,0,0,0]},{"header":{"parameterUnit":"m.s-1","parameterCategory":2,"la1":30.2991,"la2":30.254,"lo1":-89.0895,"lo2":-89.0444,"dy":0.0017,"dx":0.0017,"nx":28,"ny":28,"refTime":"2024-07-03T03:00:00:Z","depth":"4","parameterNumber":3,"parameterNumberName":"V-component_of_CURRENTS"},"data":[0,0,0,0,0,0,0,0,0,0,0,0,0,0,0,0,0,0,0,0,0,0,0,0,0,0,0,0,0,0,0,0,0,0,0,0,0,0,0,0,0,0,0,0,0,0,0,0,0,0,0,0,0,0,0,0,0,0,-0.0185,-0.0184,0,-0.0133,-0.0132,-0.0132,-0.0081,-0.0081,-0.008,-0.008,-0.0046,-0.0045,-0.0045,0,0,0,0,0,0,0,0,0,0,0,0,0,-0.0208,-0.0208,-0.0185,-0.0184,-0.0184,-0.0133,-0.0132,-0.0131,-0.0082,-0.0081,-0.008,-0.008,-0.0046,-0.0045,-0.0045,0,0,0,0,0,0,0,0,0,0,0,0,0,-0.018,-0.0208,-0.0185,-0.0154,-0.015,-0.0133,-0.0132,-0.0131,-0.0082,-0.0081,-0.008,-0.0079,-0.0046,-0.0045,-0.0045,-0.0057,0,0,-0.0043,-0.0043,0,0,0,0,0,0,0,0,-0.0182,-0.0179,-0.0159,-0.0156,-0.0152,-0.0114,-0.0128,-0.0108,-0.0082,-0.0107,-0.008,-0.0079,-0.0072,-0.0069,-0.0059,-0.0055,-0.0054,-0.0043,-0.0042,-0.0042,-0.0042,0,0,0,0,0,0,0,-0.0184,-0.0181,-0.0163,-0.0158,-0.0154,-0.0131,-0.0126,-0.0124,-0.0094,-0.0104,-0.0101,-0.0097,-0.007,-0.006,-0.0058,-0.0054,-0.0043,-0.0042,-0.0042,-0.0042,-0.005,-0.005,0,0,0,0,0,0,-0.0195,-0.0183,-0.0165,-0.0162,-0.0167,-0.0132,-0.0126,-0.0126,-0.0093,-0.0087,-0.0098,-0.0095,-0.0061,-0.0059,-0.0056,-0.0054,-0.0042,-0.0042,-0.0041,-0.0049,-0.005,-0.0051,0,0,0,0,0,0,-0.0196,-0.0194,-0.0167,-0.0172,-0.0167,-0.0132,-0.0132,-0.0125,-0.0114,-0.0088,-0.0083,-0.0094,-0.006,-0.0057,-0.0056,-0.0053,-0.0041,-0.0041,-0.0049,-0.0049,-0.005,-0.0059,0,0,0,0,0,0,-0.0197,-0.0195,-0.0202,-0.0173,-0.0167,-0.0162,-0.0133,-0.0125,-0.0114,-0.011,-0.0084,-0.0079,-0.0059,-0.0057,-0.0056,-0.0052,-0.004,-0.0048,-0.0049,-0.005,-0.0058,-0.006,-0.0062,0,0,0,0,0,-0.0198,-0.0209,-0.0202,-0.02,-0.0176,-0.0162,-0.0157,-0.0129,-0.0115,-0.0115,-0.0097,-0.008,-0.0063,-0.0057,-0.0055,-0.0051,-0.0047,-0.0049,-0.005,-0.0057,-0.006,-0.0062,0,0,0,0,0,0,-0.0221,-0.0205,-0.0196,-0.0201,-0.0186,-0.0154,-0.0154,-0.0135,-0.012,-0.0119,-0.009,-0.0085,-0.0085,-0.0073,-0.0068,-0.0059,-0.0052,-0.0053,-0.0058,-0.006,-0.0062,-0.0058,-0.004,0,0,0,0,0,-0.0232,-0.0237,-0.0215,-0.0221,-0.0215,-0.0187,-0.0179,-0.0162,-0.0143,-0.0135,-0.0115,-0.01,-0.009,-0.0079,-0.0075,-0.007,-0.0037,-0.0067,-0.0069,-0.007,-0.0067,-0.0008,-0.0003,-0.0055,-0.0055,-0.0055,0,0,-0.0243,-0.0235,-0.0238,-0.0226,-0.0212,-0.0211,-0.018,-0.0173,-0.0168,-0.0137,-0.0128,-0.0114,-0.0095,-0.0087,-0.0085,-0.0073,-0.0041,-0.0072,-0.0073,-0.0068,-0.0008,-0.0003,0.0002,-0.0056,-0.0056,-0.0056,0,0,-0.0269,-0.0262,-0.0274,-0.0266,-0.0253,-0.0234,-0.0235,-0.0209,-0.0192,-0.0188,-0.0161,-0.0139,-0.0133,-0.01,-0.0088,-0.01,-0.0062,-0.0108,-0.01,-0.0043,-0.0037,-0.0032,0.0011,0.002,-0.0097,-0.0097,-0.0097,0,-0.0284,-0.0296,-0.0275,-0.0285,-0.028,-0.0248,-0.0256,-0.0238,-0.0213,-0.0198,-0.0192,-0.0152,-0.0133,-0.01,-0.01,-0.0101,-0.0071,-0.0089,-0.0042,-0.0036,-0.0031,0.0012,0.0022,-0.0098,-0.0098,-0.0098,-0.0097,0,-0.0315,-0.0326,-0.0334,-0.0333,-0.0324,-0.033,-0.0301,-0.0289,-0.0268,-0.024,-0.0212,-0.0176,-0.0145,-0.0134,-0.012,-0.0073,-0.0067,-0.0058,-0.003,-0.0025,0.0018,0.0029,-0.0098,-0.0098,-0.0098,-0.0098,0,0,-0.0348,-0.0355,-0.0361,-0.0369,-0.0352,-0.0349,-0.0339,-0.0313,-0.0297,-0.0264,-0.0234,-0.0197,-0.0164,-0.0147,-0.0115,-0.0056,0.0011,-0.004,-0.0037,0.0012,0.0129,0.0112,0.0122,0.0031,0.0033,0.0034,0.0142,0,-0.0381,-0.0415,-0.0402,-0.0425,-0.0436,-0.0402,-0.0391,-0.0361,-0.0326,-0.0289,-0.0228,-0.0199,-0.0173,-0.0153,-0.009,-0.0023,0.004,-0.002,0.0108,0.0112,0.0105,0.0135,0.004,0.0151,0.0153,0.0155,0.0156,0,-0.0417,-0.0434,-0.0469,-0.0469,-0.0468,-0.0475,-0.0444,-0.043,-0.0365,-0.0333,-0.0276,-0.0229,-0.0148,-0.0127,0.0015,-0.0027,0.0049,0.0111,0.0117,0.0113,0.0115,0.0145,0.0177,0.0175,0.0174,0.0172,0.0171,0,-0.0454,-0.0479,-0.051,-0.0513,-0.0506,-0.0511,-0.0502,-0.045,-0.043,-0.036,-0.033,-0.0233,-0.018,-0.0074,0.0048,0.0035,0.0209,0.0207,0.0268,0.0267,0.0255,0.0248,0.032,0.032,0.032,0.032,0.0319,0,-0.0491,-0.0518,-0.0537,-0.0556,-0.0587,-0.0557,-0.0564,-0.0535,-0.0479,-0.0446,-0.0361,-0.0299,-0.0161,-0.0048,0.0054,0.0194,0.0218,0.0278,0.0301,0.0245,0.0236,0.0263,0.0255,0.0324,0.0323,0.0322,0.0321,0,-0.0527,-0.0541,-0.0582,-0.0599,-0.0611,-0.0634,-0.0629,-0.062,-0.0559,-0.051,-0.0489,-0.034,-0.0188,-0.0051,0.0137,0.0201,0.0334,0.038,0.0309,0.0323,0.035,0.034,0.0453,0.0453,0.0454,0.0454,0.0454,0,-0.0548,-0.0574,-0.063,-0.0667,-0.0685,-0.0713,-0.0725,-0.0677,-0.0651,-0.0524,-0.0493,-0.0336,-0.0231,0.0025,0.0165,0.0354,0.0378,0.0432,0.0395,0.0357,0.0368,0.0357,0.0346,0.0455,0.0455,0.0455,0.0455,0,-0.0583,-0.061,-0.0647,-0.0729,-0.077,-0.0799,-0.0805,-0.0785,-0.0699,-0.0647,-0.0479,-0.0331,-0.0153,0.0036,0.0183,0.0319,0.0384,0.0437,0.0436,0.0401,0.0361,0.0368,0.0358,0.0457,0.0456,0.0456,0.0456,0,-0.0612,-0.0655,-0.0714,-0.0778,-0.0838,-0.0862,-0.0858,-0.0796,-0.0749,-0.0591,-0.053,-0.0322,-0.0189,0.0022,0.0163,0.0285,0.0308,0.0325,0.0331,0.0331,0.0255,0.0183,0.0255,0,0,0,0,0,-0.0634,-0.0686,-0.0756,-0.0828,-0.0886,-0.0913,-0.0895,-0.0864,-0.0773,-0.0665,-0.0591,-0.0417,-0.0166,-0.0036,0.0083,0.0141,0.0301,0.028,0.0316,0.0464,0.0462,0.039,0,0,0,0,0,0,-0.0653,-0.0725,-0.0761,-0.085,-0.0903,-0.0952,-0.0939,-0.0878,-0.0793,-0.0681,-0.0538,-0.0425,-0.0179,-0.0249,0.007,0.0114,0.0146,0.0412,0.0414,0.0465,0.0463,0.0462,0.0387,0,0,0,0,0]}]]